COSMOS 1261 DEB, 12892

Orbit data source: Space-Track

COSMOS 1261 DEB, 12892 is space debris originally from a launch on Tue, 31 Mar 1981 UTC launched from the Plesetsk Missile And Space Complex (PKMTR). Debris objects in space refer to the collection of defunct objects orbiting the Earth. Examples of debris include non-operational satellites, rocket bodies, and fragments generated from explosions, collisions, or faulty payload assembly.

Loading next visibility...
COSMOS 1261 DEB details
Identifier
12892, 1981-031E
Orbit
Molniya
Last TLE update2 days ago
Origin
Flag of CISPVO (CIS)
ManufacturerUnknown
MissionSpacecraft
Bus & MotorUnknown
MassUnknown
Launch date (UTC)
1981-03-31 (44 years ago)
Launch vehicleUnknown
Launch site
Plesetsk Missile And Space Complex (PKMTR)
Object type
Payload
Rocket body
Debris
Shape & HBRUnknown
Radar Cross Section1.500 m², Large (>1 m²)

Expand to show TLE details & history

TLE from 2 days ago
0 COSMOS 1261 DEB
1 12892U 81031E   25034.32022844 -.00000781  00000-0  00000-0 0  9991
2 12892  62.2401 164.2901 7308727  38.8441 355.4456  2.00129176249414
Epoch: 2025-02-03T07:41Z
Definitive object data (Epoch: 2025-02-03T07:41:07.737Z)
Latitude0.00007°
Longitude-84.70581°
Altitude1,520.492 km
Speed9.271 km/s
True Right ascension10h 57m 16s
True Declination0° 00' 00"
Sunlit
Object was in full shadow at TLE epoch
Visualization TLE readout
Latitude-57.08324°
Longitude-139.10048°
Altitude10,217.377 km
Speed5.753 km/s
Apparent Right ascension05h 39m 43s
Apparent Declination-74° 08' 36"
Sunlit
Object is in daylight
Visualization observer readout
Local Sidereal Time09:04:13
Azimuth194.084° SSW
Elevation-29.06°
Doppler factor1
Orbital elements
Apogee altitude39,659.404 km
Perigee altitude780.078 km
Semi-major axis26,597.878 km
Eccentricity0.7308727
Inclination62.2401°
RAAN164.2901°
Arg. of periapsis38.8441°
True anomaly320.02114°
Mean anomaly355.4456°
Eccentric anomaly343.67462°
Mean motion0.50035 °/min
BSTARUnknown
Orbital period719.5 mins
Loading maneuver chart data...
Loading historical data...
Loading historical data...
Loading historical data...
Loading historical data...
Loading historical data...
Loading historical data...
Loading historical data...

COSMOS 1261 DEB Visibility forecast

Observer location: undefined°, undefined

Span
Click to sort rows by Start time (UTC) header in descending order
Start Az.
Max El. time (UTC)
Max El. Az.
Max El.
End time (UTC)
End Az.
240 mins2025-02-05 20:04:56.991Z318.24° NNW2025-02-05 20:25:56.991Z245.244° WSW42.75°2025-02-06 00:04:56.991Z214.105° SW
|